FW2491 Weather Reports


time (UTC)temp
C
wind
direction
speed
KPH
gust
KPH
rain 1hr
cm
rain 24hr
cm
rain mn
cm
humidity
%
barometer
mb
20260504050021 10 271 14.5 17.7 0.00 0.00 0.00 45 1017.9
20260504044521 10 286 12.9 16.1 0.00 0.00 0.00 43 1017.9
20260504043021 10 286 14.5 17.7 0.00 0.00 0.00 42 1017.7
20260504041510 11 277 11.3 14.5 0.00 0.00 0.00 40 1017.5
20260504040007 11 283 11.3 16.1 0.00 0.00 0.00 39 1017.7
20260504034505 11 284 12.9 17.7 0.00 0.00 0.00 38 1017.8
20260504033007 12 281 14.5 20.9 0.00 0.00 0.00 37 1017.8
20260504031505 12 264 14.5 19.3 0.00 0.00 0.00 38 1017.8
20260504030004 11 272 16.1 20.9 0.00 0.00 0.00 38 1017.8
20260504024504 12 262 17.7 19.3 0.00 0.00 0.00 38 1017.8
20260504023003 12 277 14.5 17.7 0.00 0.00 0.00 39 1017.6
20260504021509 12 259 12.9 17.7 0.00 0.00 0.00 39 1017.5
20260504020002 13 251 11.3 17.7 0.00 0.00 0.00 38 1017.4
20260504014501 13 248 9.7 16.1 0.00 0.00 0.00 38 1017.2
20260504013100 13 261 9.7 14.5 0.00 0.00 0.00 38 1017.1
20260504011559 13 238 12.9 19.3 0.00 0.00 0.00 38 1016.9
20260504010059 14 267 9.7 17.7 0.00 0.00 0.00 38 1016.8
20260504004558 15 246 8.0 14.5 0.00 0.00 0.00 29 1016.7
20260504003100 16 234 6.4 11.3 0.00 0.00 0.00 27 1016.5
20260504001606 16 255 8.0 11.3 0.00 0.00 0.00 25 1016.4
20260504000059 17 266 11.3 14.5 0.00 0.00 0.00 25 1016.4
20260503234556 18 280 6.4 12.9 0.00 0.00 0.00 25 1016.4
20260503233101 18 284 4.8 16.1 0.00 0.00 0.00 24 1016.3
20260503231557 18 298 12.9 17.7 0.00 0.00 0.00 21 1016.3
20260503230055 19 291 12.9 20.9 0.00 0.00 0.00 21 1016.3
20260503224552 19 279 14.5 20.9 0.00 0.00 0.00 19 1016.3
20260503223052 20 286 12.9 20.9 0.00 0.00 0.00 19 1016.4
20260503221553 20 296 12.9 20.9 0.00 0.00 0.00 17 1016.5
20260503220050 20 205 3.2 9.7 0.00 0.00 0.00 25 1016.5
20260503214559 20 237 6.4 17.7 0.00 0.00 0.00 26 1016.5
20260503213048 19 184 9.7 24.1 0.00 0.00 0.00 27 1016.7
20260503211552 19 228 12.9 20.9 0.00 0.00 0.00 25 1016.8
20260503210045 20 240 16.1 27.4 0.00 0.00 0.00 27 1016.8
20260503204553 20 225 11.3 22.5 0.00 0.00 0.00 24 1016.9
20260503203048 19 251 9.7 19.3 0.00 0.00 0.00 21 1017.1
20260503201541 19 260 11.3 20.9 0.00 0.00 0.00 24 1017.5
20260503200040 18 200 12.9 24.1 0.00 0.00 0.00 26 1017.8
20260503194539 18 219 9.7 17.7 0.00 0.00 0.00 28 1018.0
20260503193036 18 130 8.0 22.5 0.00 0.00 0.00 27 1018.4
20260503191533 18 171 8.0 16.1 0.00 0.00 0.00 28 1018.6
20260503190045 18 213 11.3 19.3 0.00 0.00 0.00 25 1018.9
20260503184530 18 237 6.4 14.5 0.00 0.00 0.00 32 1019.1
20260503183026 17 200 9.7 24.1 0.00 0.00 0.00 27 1019.1
20260503181524 17 246 11.3 19.3 0.00 0.00 0.00 28 1019.2
20260503180035 17 217 8.0 19.3 0.00 0.00 0.00 25 1019.5
20260503174519 16 283 14.5 27.4 0.00 0.00 0.00 27 1019.5
20260503173019 16 312 14.5 24.1 0.00 0.00 0.00 28 1019.6
20260503171531 16 324 3.2 17.7 0.00 0.00 0.00 27 1019.9
20260503140108 12 355 1.6 8.0 0.00 0.00 0.00 47 1020.8
20260503081503 4 351 4.8 9.7 0.00 0.00 0.00 61 1017.6
20260503071606 5 304 4.8 8.0 0.00 0.00 0.00 58 1017.0
20260503054544 6 311 8.0 9.7 0.00 0.00 0.00 58 1017.0
20260503053039 6 305 6.4 8.0 0.00 0.00 0.00 57 1017.0